Location: *
(51.1248°S, 108.4023°W)
Time: 05:23:44
(UTC+00:00)

YAOGAN 1 - Pass Details

Date: 15 June 2021
Orbit: 618 x 620 km, 97.9° (Epoch: 31 July)

Event Time Altitude Azimuth Distance (km) Brightness Sun altitude
Rises 14:20:12 0° 358° (N) 2,898 6.4 -8.3°
Reaches altitude 10° 14:22:27 10° 352° (N) 2,000 5.4 -8.0°
Maximum altitude 14:26:38 44° 279° (W) 872 3.0 -7.4°
Drops below altitude 10° 14:30:52 10° 205° (SSW) 2,027 4.7 -6.8°
Sets 14:33:10 0° 198° (SSW) 2,942 5.6 -6.5°
Enters shadow 14:33:13 - 198° (SSW) 2,960 5.6 -6.5°
